This demonstration page uses our WeatherBlox Daily Observations layout. Learn more.

Left ArrowRight Arrow

Hourly Observations for December 5, 2022

Temp ( °F °C ) Dew Point ( °F °C ) Humidity (%) Winds ( mph kmh ) Pressure ( in mb ) Visibility ( mi km ) Precip ( " mm )
12:59 am 00:59 Clear 34 1.1 34 1.1 100 100 Calm 30.22 1023 8 13 0.00 0.00
1:59 am 01:59 Clear 33 0.6 33 0.6 100 100 Calm 30.22 1023 9 14 0.00 0.00
2:59 am 02:59 Mostly Clear 34 1.1 32 0 92 92 Calm 30.22 1023 10 16 0.00 0.00
3:59 am 03:59 Mostly Clear 32 0 31 -0.6 96 96 Calm 30.22 1023 10 16 0.00 0.00
4:59 am 04:59 Mostly Clear 32 0 32 0 100 100 Calm 30.22 1024 10 16 0.00 0.00
5:59 am 05:59 Mostly Clear 36 2.2 34 1.1 92 92 Calm 30.23 1024 10 16 0.00 0.00
6:59 am 06:59 Mostly Cloudy 36 2.2 35 1.7 96 96 Calm 30.25 1024 10 16 0.00 0.00
7:59 am 07:59 Mostly Cloudy 38 3.3 36 2.2 92 92 Calm 30.27 1025 10 16 0.00 0.00
8:59 am 08:59 Mostly Cloudy 48 8.9 37 2.8 66 66 NE 8 13 30.29 1026 10 16 0.00 0.00
9:59 am 09:59 Mostly Cloudy 50 10 38 3.3 63 63 NE 9 15 30.29 1026 10 16 0.00 0.00
10:59 am 10:59 Mostly Cloudy 51 10.6 38 3.3 61 61 E 9 15 30.29 1026 10 16 0.00 0.00
11:59 am 11:59 Cloudy 53 11.7 39 3.9 59 59 ENE 10 17 30.26 1025 10 16 0.00 0.00
12:59 pm 12:59 Mostly Cloudy 53 11.7 40 4.4 61 61 E 13 20 30.24 1024 10 16 0.00 0.00
1:59 pm 13:59 Mostly Cloudy 53 11.7 42 5.6 66 66 E 10 17 30.22 1023 10 16 0.00 0.00
2:59 pm 14:59 Mostly Cloudy 53 11.7 43 6.1 68 68 ENE 8 13 30.22 1024 10 16 0.00 0.00
3:59 pm 15:59 Mostly Cloudy 51 10.6 42 5.6 71 71 E 5 7 30.23 1024 10 16 0.00 0.00
4:59 pm 16:59 Mostly Cloudy 47 8.3 43 6.1 86 86 Calm 30.23 1024 10 16 0.00 0.00
5:59 pm 17:59 Mostly Cloudy 46 7.8 43 6.1 89 89 Calm 30.24 1024 10 16 0.00 0.00
6:59 pm 18:59 Mostly Cloudy 47 8.3 44 6.7 90 90 Calm 30.24 1024 10 16 0.00 0.00
7:59 pm 19:59 Mostly Cloudy 46 7.8 45 7.2 96 96 Calm 30.25 1024 10 16 0.00 0.00
8:59 pm 20:59 Mostly Cloudy 48 8.9 46 7.8 93 93 Calm 30.25 1024 10 16 0.00 0.00
9:59 pm 21:59 Mostly Cloudy 48 8.9 48 8.9 100 100 Calm 30.25 1024 9 14 0.00 0.00
10:59 pm 22:59 Mostly Cloudy with Mist and Fog 47 8.3 47 8.3 100 100 WNW 3 6 30.24 1024 3 5 0.00 0.00
11:59 pm 23:59 Cloudy 46 7.8 46 7.8 100 100 Calm 30.23 1024 7 11 0.00 0.00

Powered by AerisWeather